EN

Hourly Weather Abay (Syrdarinskiy rayon)

Today, 26 November, Thursday

Time Temperature Precipitation Wind Pressure Humidity
00:00 -6°C° 0 mm 3 mps 759 mmHg 68%
01:00 -6°C° 0 mm 3 mps 759 mmHg 69%
02:00 -5°C° 0 mm 3 mps 759 mmHg 68%
03:00 -5°C° 0 mm 3 mps 759 mmHg 67%
04:00 -5°C° 0 mm 4 mps 759 mmHg 70%
05:00 -5°C° 0 mm 4 mps 759 mmHg 69%
06:00 -5°C° 0 mm 4 mps 759 mmHg 68%
07:00 -6°C° 0 mm 5 mps 759 mmHg 67%
08:00 -4°C° 0 mm 5 mps 759 mmHg 62%
09:00 -3°C° 0 mm 6 mps 759 mmHg 57%
10:00 -2°C° 0 mm 6 mps 759 mmHg 52%
11:00 0°C° 0 mm 5 mps 759 mmHg 51%
12:00 +1°C° 0 mm 5 mps 759 mmHg 49%
13:00 +3°C° 0 mm 4 mps 758 mmHg 48%
14:00 +1°C° 0 mm 4 mps 758 mmHg 50%
15:00 +2°C° 0 mm 3 mps 758 mmHg 52%
16:00 +1°C° 0 mm 3 mps 758 mmHg 55%
17:00 +1°C° 0 mm 3 mps 758 mmHg 57%
18:00 0°C° 0 mm 3 mps 758 mmHg 60%
19:00 0°C° 0 mm 3 mps 758 mmHg 62%
20:00 0°C° 0 mm 3 mps 757 mmHg 65%
21:00 0°C° 0 mm 3 mps 757 mmHg 67%
22:00 0°C° 0 mm 3 mps 757 mmHg 69%
23:00 0°C° 0 mm 3 mps 757 mmHg 70%

Tomorrow, 27 November, Friday

Time Temperature Precipitation Wind Pressure Humidity
00:00 0°C° 0 mm 3 mps 756 mmHg 71%
01:00 -2°C° 0 mm 4 mps 756 mmHg 73%
02:00 -2°C° 0 mm 4 mps 756 mmHg 72%
03:00 -1°C° 0 mm 3 mps 756 mmHg 72%
04:00 -1°C° 0 mm 3 mps 756 mmHg 72%
05:00 -1°C° 0 mm 3 mps 756 mmHg 71%
06:00 -1°C° 0 mm 3 mps 756 mmHg 70%
07:00 -1°C° 0 mm 3 mps 756 mmHg 70%
08:00 0°C° 0 mm 3 mps 756 mmHg 66%
09:00 +2°C° 0 mm 3 mps 756 mmHg 63%
10:00 +3°C° 0 mm 3 mps 756 mmHg 59%
11:00 +3°C° 0 mm 3 mps 755 mmHg 57%
12:00 +5°C° 0 mm 2 mps 755 mmHg 55%
13:00 +6°C° 0 mm 2 mps 755 mmHg 53%
14:00 +5°C° 0.5 mm 2 mps 755 mmHg 63%
15:00 +4°C° 0.5 mm 2 mps 755 mmHg 73%
16:00 +3°C° 0.5 mm 2 mps 755 mmHg 84%
17:00 +3°C° 0.7 mm 2 mps 755 mmHg 88%
18:00 +3°C° 0.7 mm 1 mps 755 mmHg 91%
19:00 +3°C° 0.7 mm 1 mps 755 mmHg 95%
20:00 +2°C° 0.6 mm 2 mps 755 mmHg 95%
21:00 0°C° 0.6 mm 4 mps 755 mmHg 96%
22:00 -1°C° 0.6 mm 5 mps 755 mmHg 96%
23:00 -2°C° 0.4 mm 6 mps 756 mmHg 96%

Day after tomorrow, 28 November, Saturday

Time Temperature Precipitation Wind Pressure Humidity
00:00 -2°C° 0.4 mm 6 mps 756 mmHg 96%
01:00 -3°C° 0.4 mm 7 mps 756 mmHg 96%
02:00 -3°C° 0.3 mm 7 mps 757 mmHg 94%
03:00 -4°C° 0.3 mm 8 mps 758 mmHg 92%
04:00 -4°C° 0.3 mm 8 mps 759 mmHg 89%
05:00 -5°C° 0 mm 8 mps 760 mmHg 90%
06:00 -6°C° 0 mm 7 mps 761 mmHg 90%
07:00 -6°C° 0 mm 7 mps 762 mmHg 91%
08:00 -6°C° 0 mm 7 mps 763 mmHg 88%
09:00 -4°C° 0 mm 6 mps 764 mmHg 86%
10:00 -4°C° 0 mm 6 mps 765 mmHg 83%
11:00 -3°C° 0 mm 6 mps 766 mmHg 79%
12:00 -2°C° 0 mm 6 mps 766 mmHg 75%
13:00 -2°C° 0 mm 6 mps 767 mmHg 70%
14:00 -1°C° 0 mm 5 mps 767 mmHg 71%
15:00 -2°C° 0 mm 4 mps 768 mmHg 72%
16:00 -1°C° 0 mm 3 mps 768 mmHg 73%
17:00 -2°C° 0 mm 3 mps 768 mmHg 75%
18:00 -2°C° 0 mm 3 mps 769 mmHg 77%
19:00 -3°C° 0 mm 2 mps 769 mmHg 79%
20:00 -3°C° 0 mm 2 mps 770 mmHg 81%
21:00 -4°C° 0 mm 2 mps 770 mmHg 82%
22:00 -5°C° 0 mm 2 mps 770 mmHg 84%
23:00 -5°C° 0 mm 2 mps 770 mmHg 86%

29 November, Sunday

Time Temperature Precipitation Wind Pressure Humidity
00:00 -5°C° 0 mm 2 mps 770 mmHg 87%
01:00 -6°C° 0 mm 2 mps 771 mmHg 88%
02:00 -6°C° 0 mm 2 mps 771 mmHg 89%
03:00 -6°C° 0 mm 2 mps 771 mmHg 90%
04:00 -6°C° 0 mm 2 mps 771 mmHg 91%
05:00 -7°C° 0 mm 3 mps 771 mmHg 91%
06:00 -8°C° 0 mm 3 mps 771 mmHg 92%
07:00 -8°C° 0 mm 3 mps 771 mmHg 92%
08:00 -7°C° 0 mm 3 mps 771 mmHg 87%
09:00 -6°C° 0 mm 3 mps 772 mmHg 81%
10:00 -5°C° 0 mm 3 mps 772 mmHg 76%
11:00 -4°C° 0 mm 4 mps 772 mmHg 72%
12:00 -4°C° 0 mm 4 mps 771 mmHg 69%
13:00 -4°C° 0 mm 5 mps 771 mmHg 66%
14:00 -5°C° 0 mm 5 mps 771 mmHg 70%
15:00 -6°C° 0 mm 5 mps 771 mmHg 75%
16:00 -7°C° 0 mm 5 mps 770 mmHg 80%
17:00 -8°C° 0 mm 5 mps 771 mmHg 81%
18:00 -8°C° 0 mm 5 mps 771 mmHg 83%
19:00 -8°C° 0 mm 5 mps 771 mmHg 84%
20:00 -8°C° 0 mm 5 mps 771 mmHg 84%
21:00 -10°C° 0 mm 5 mps 771 mmHg 83%
22:00 -10°C° 0 mm 6 mps 770 mmHg 83%
23:00 -10°C° 0 mm 6 mps 770 mmHg 83%

30 November, Monday

Time Temperature Precipitation Wind Pressure Humidity
00:00 -10°C° 0 mm 6 mps 770 mmHg 83%
01:00 -11°C° 0 mm 6 mps 770 mmHg 82%
02:00 -11°C° 0 mm 6 mps 770 mmHg 82%
03:00 -11°C° 0 mm 6 mps 770 mmHg 82%
04:00 -13°C° 0 mm 7 mps 769 mmHg 82%
05:00 -13°C° 0 mm 7 mps 769 mmHg 81%
06:00 -13°C° 0 mm 7 mps 769 mmHg 80%
07:00 -13°C° 0 mm 7 mps 769 mmHg 79%
08:00 -13°C° 0 mm 7 mps 769 mmHg 74%
09:00 -12°C° 0 mm 8 mps 769 mmHg 68%
10:00 -11°C° 0 mm 8 mps 769 mmHg 63%
11:00 -11°C° 0 mm 8 mps 768 mmHg 61%
12:00 -10°C° 0 mm 8 mps 768 mmHg 59%
13:00 -10°C° 0 mm 8 mps 767 mmHg 57%
14:00 -10°C° 0 mm 8 mps 767 mmHg 61%
15:00 -11°C° 0 mm 8 mps 767 mmHg 64%
16:00 -12°C° 0 mm 8 mps 767 mmHg 68%
17:00 -12°C° 0 mm 8 mps 766 mmHg 70%
18:00 -13°C° 0 mm 8 mps 766 mmHg 72%
19:00 -14°C° 0 mm 9 mps 766 mmHg 74%
20:00 -14°C° 0 mm 9 mps 766 mmHg 74%
21:00 -14°C° 0 mm 9 mps 765 mmHg 74%
22:00 -15°C° 0 mm 9 mps 765 mmHg 73%
23:00 -15°C° 0 mm 9 mps 765 mmHg 73%

1 December, Tuesday

Time Temperature Precipitation Wind Pressure Humidity
00:00 -15°C° 0 mm 9 mps 764 mmHg 73%
01:00 -15°C° 0 mm 9 mps 764 mmHg 72%
02:00 -16°C° 0 mm 9 mps 764 mmHg 73%
03:00 -16°C° 0 mm 9 mps 763 mmHg 74%
04:00 -16°C° 0 mm 9 mps 763 mmHg 75%
05:00 -16°C° 0 mm 9 mps 763 mmHg 75%
06:00 -16°C° 0 mm 9 mps 763 mmHg 76%
07:00 -16°C° 0 mm 9 mps 763 mmHg 77%
08:00 -15°C° 0 mm 9 mps 763 mmHg 74%
09:00 -14°C° 0 mm 9 mps 762 mmHg 71%
10:00 -12°C° 0 mm 9 mps 762 mmHg 69%
11:00 -12°C° 0 mm 9 mps 762 mmHg 67%
12:00 -11°C° 0 mm 9 mps 762 mmHg 66%
13:00 -10°C° 0 mm 9 mps 762 mmHg 65%
14:00 -10°C° 0 mm 8 mps 762 mmHg 71%
15:00 -9°C° 0 mm 7 mps 762 mmHg 76%
16:00 -9°C° 0 mm 7 mps 762 mmHg 82%
17:00 -9°C° 0 mm 7 mps 762 mmHg 85%
18:00 -11°C° 0 mm 7 mps 762 mmHg 87%
19:00 -11°C° 0 mm 7 mps 762 mmHg 90%
20:00 -10°C° 0 mm 6 mps 761 mmHg 90%
21:00 -10°C° 0 mm 6 mps 761 mmHg 89%
22:00 -11°C° 0 mm 5 mps 761 mmHg 89%
23:00 -11°C° 0 mm 5 mps 761 mmHg 89%
Show more